SCP
0 0 0 0 0 0 0 0 0 0 0 0 0 0 0 0 0 0 0 0 0 0 0 0 0 0 0 0 0 0 0 0 0 0 0 0 0 0
0 0 0 0 0 0 0 0 0 0 0 0 0 0 0 0 0 0 0 0 0 0 0 0 0 0 0 0 0 0 0 0 0 0 0 0 0 0
0 0 0 0 0 0 0 0 0 0 0 0 0 0 0 0 0 0 0 0 0 0 0 0 0 0 0 0 0 0 0 0 0 0 0 0 0 0
-0 -0 0 0 0 0 0 0 0 0 0 0 0 0 0 0 0 0 0 0 0 0 0 0 0 0 0 0 0 0 0 0 0 0 0 0 0 0
0 -0 -0 -0 0 0 0 0 0 0 0 0 0 0 0 0 0 0 0 0 0 0 0 0 0 0 0 0 0 0 0 0 0 0 0 0 0 0
0 0 0 0 0 0 0 0 0 0 0 0 0 0 0 0 0 0 0 0 0 0 0 0 0 0 0 0 0 0 0 0 0 0 0 0 0 0
-0 0 0 0 0 0 0 0 0 0 0 0 0 0 0 0 0 0 0 0 0 0 0 0 0 0 0 0 0 0 0 0 0 0 0 0 0 0
0 0 0 0 0 0 0 0 0 0 0 0 0 0 0 0 0 0 0 0 0 0 0 0 0 0 0 0 0 0 0 0 0 0 0 0 0 0
0 0 0 0 0 0 0 0 0 0 0 0 0 0 0 0 0 0 0 0 0 0 0 0 0 0 0 0 0 0 0 0 0 0 0 0 0 0
0 0 0 0 0 0 0 0 0 0 0 0 0 0 0 0 0 0 0 0 0 0 0 0 0 0 0 0 0 0 0 0 0 0 0 0 0 0
0 0 0 0 0 0 0 0 0 0 0 0 0 0 0 0 0 0 0 0 0 0 0 0 0 0 0 0 0 0 0 0 0 0 0 0 0 0
0 0 0 0 0 0 0 0 0 0 0 0 0 0 0 0 0 0 0 0 0 0 0 0 0 0 0 0 0 0 0 0 0 0 0 0 0 0
0 0 0 0 0 0 0 0 0 0 0 0 0 0 0 0 0 0 0 0 0 0 0 0 0 0 0 0 0 0 0 0 0 0 0 0 0 0
0 0 0 0 0 0 0 0 0 0 0 0 0 0 0 0 0 0 0 0 0 0 0 0 0 0 0 0 0 0 0 0 0 0 0 0 0 0
0 0 0 0 0 0 0 0 0 0 0 0 0 0 0 0 0 0 0 0 0 0 0 0 0 0 0 0 0 0 0 0 0 0 0 0 0 0
0 0 0 0 0 0 0 0 0 0 0 0 0 0 0 0 0 0 0 0 0 0 0 0 0 0 0 0 0 0 0 0 0 0 0 0 0 0
0 0 0 0 0 0 0 0 0 0 0 0 0 0 0 0 0 0 0 0 0 0 0 0 0 0 0 0 0 0 0 0 0 0 0 0 0 0
0 0 0 0 0 0 0 0 0 0 0 0 0 0 0 0 0 0 0 0 0 0 0 0 0 0 0 0 0 0 0 0 0 0 0 0 0 0
0 0 0 0 0 0 0 0 0 0 0 0 0 0 0 0 0 0 0 0 0 0 0 0 0 0 0 0 0 0 0 0 0 0 0 0 0 0
0 0 0 0 0 0 0 0 0 0 0 0 0 0 0 0 0 0 -0 0 0 0 0 0 0 0 0 0 0 0 0 0 0 0 0 0 0 0
0 0 0 0 0 0 0 0 0 0 0 0 0 0 0 0 0 0 0 0 0 0 0 0 0 0 0 0 0 0 0 0 0 0 0 0 0 0
0 0 0 0 0 0 0 0 0 0 0 0 0 0 0 0 0 0 0 0 0 0 0 0 0 0 0 0 0 0 0 0 0 0 0 0 0 0
0 0 0 0 0 0 0 0 0 0 0 0 0 0 0 0 0 0 0 0 0 0 0 0 0 0 0 0 0 0 0 0 0 0 0 0 0 0
Wind_Speed_500mb
42 43 44 45 49 54 61 65 65 69 92 80 76 80 78 78 78 76 71 72 78 79 79 79 75 69 66 62 61 60 57 53 50 47 45 43 41 39
56 55 54 52 51 49 50 56 63 74 92 87 92 86 80 77 75 79 81 75 76 84 86 86 82 74 70 68 66 65 64 59 56 53 49 48 45 43
67 68 66 61 61 58 54 53 56 62 84 97 99 99 97 94 86 84 79 80 79 81 85 88 89 83 78 75 72 70 69 67 63 58 54 51 48 46
86 85 80 74 74 71 66 64 62 60 66 82 85 91 96 91 93 92 91 91 90 84 78 84 90 88 85 82 79 76 76 73 67 63 57 53 50 49
89 91 93 91 87 81 78 78 75 71 70 75 84 80 82 82 84 90 94 93 96 93 89 88 89 91 91 89 87 84 83 78 73 69 63 58 55 53
93 94 95 95 96 92 88 84 83 81 78 81 86 86 82 78 79 83 89 93 96 95 95 95 96 97 96 95 94 92 88 84 81 75 69 64 59 57
100 98 98 99 97 94 86 91 87 87 86 86 93 91 94 84 81 79 84 88 93 95 97 98 100 104 105 101 100 100 95 92 89 82 76 69 64 62
105 99 91 95 99 88 78 75 71 73 79 73 78 84 95 82 80 75 76 77 89 88 92 103 103 108 111 111 110 105 103 101 96 90 84 78 72 69
96 90 86 83 77 79 81 74 75 79 77 78 86 87 83 83 74 70 75 80 86 83 61 80 92 116 117 113 113 111 106 106 103 98 93 88 80 73
80 72 70 72 67 64 67 76 85 94 99 94 100 105 99 88 76 82 79 83 87 81 83 92 87 106 99 110 114 113 109 107 106 105 101 97 87 80
71 62 61 64 58 53 59 71 79 85 81 80 83 90 94 89 85 79 82 78 84 93 90 89 84 82 90 98 106 104 106 106 108 110 107 103 93 85
72 72 67 61 57 55 61 70 83 86 84 70 70 79 84 101 96 93 96 86 85 77 81 89 91 87 78 99 100 99 97 98 104 109 112 108 100 95
78 79 78 65 62 60 61 69 78 76 79 80 90 98 87 88 90 91 101 99 97 93 76 68 78 87 95 69 53 78 89 93 97 98 106 113 109 107
76 80 84 72 67 69 72 80 78 76 83 89 88 86 88 90 83 89 92 91 98 104 91 85 84 79 89 87 88 79 61 73 89 95 102 104 104 109
80 81 80 80 78 79 80 77 74 82 88 90 95 96 97 89 91 85 89 91 88 92 98 96 91 91 80 87 82 81 76 81 79 84 93 105 115 106
81 86 87 82 77 84 92 85 83 85 89 94 93 93 90 87 93 86 85 92 88 84 88 90 100 100 102 97 87 89 87 80 83 88 89 98 99 110
77 82 85 77 74 76 83 91 94 89 92 96 90 84 81 84 88 101 92 86 84 79 75 79 84 92 104 100 86 92 93 85 82 80 82 98 101 103
61 61 59 60 66 74 76 73 72 76 85 81 81 81 80 82 74 90 71 92 88 82 77 74 73 80 85 91 96 90 95 92 90 85 82 98 97 100
48 49 53 57 62 66 69 65 71 75 78 77 72 73 74 79 86 93 110 88 73 74 77 81 79 81 76 76 85 94 92 86 89 86 87 92 100 106
49 52 54 56 59 61 64 66 74 71 65 64 61 63 62 66 63 44 53 51 64 69 74 82 80 82 83 87 73 82 87 88 87 84 87 85 90 89
57 56 55 56 57 57 59 62 62 62 54 49 51 54 59 53 49 47 57 72 71 73 76 83 75 68 72 67 59 66 65 75 78 79 83 85 90 87
60 61 59 57 57 57 58 58 56 52 49 47 46 49 55 54 53 43 50 60 71 76 71 70 68 67 68 68 67 65 58 59 62 61 65 72 84 77
56 59 61 60 59 57 56 55 53 48 39 34 35 44 58 59 51 44 35 41 54 59 66 67 63 58 57 63 62 57 54 55 59 56 53 64 54 68
Wind_Direction_500mb
319 315 313 307 294 284 277 275 279 283 284 281 281 277 274 267 264 266 268 267 261 258 257 257 256 255 255 250 247 246 245 243 241 243 245 247 248 247
311 307 305 306 304 301 292 281 274 275 279 280 278 278 274 269 265 261 262 264 263 261 258 258 258 256 253 250 246 244 243 243 243 244 246 248 248 247
301 300 298 298 297 294 293 290 285 277 276 280 281 281 276 272 266 264 261 260 259 259 260 258 257 256 252 249 246 243 243 242 241 243 244 246 247 247
300 297 294 292 289 290 289 286 285 285 285 285 283 280 279 277 273 265 261 260 259 258 259 260 259 257 251 249 245 243 242 242 242 244 245 247 246 246
295 293 292 292 289 286 284 283 282 280 280 284 287 286 282 279 273 269 264 262 260 257 256 256 257 257 253 248 246 243 242 240 241 243 245 246 245 244
296 293 290 288 289 289 287 283 281 280 280 280 282 284 284 282 279 271 267 262 261 259 255 253 254 254 252 250 246 244 243 241 241 242 243 245 246 246
296 292 289 289 287 287 286 285 285 282 279 277 277 280 280 279 277 281 274 272 266 260 258 255 253 250 248 247 246 244 241 241 241 240 242 243 244 245
294 290 286 284 284 285 283 280 277 276 277 275 275 273 273 273 277 277 277 271 268 266 259 254 252 251 250 248 246 244 241 239 240 240 241 242 242 243
294 292 289 285 280 277 280 280 272 263 259 264 267 267 272 271 272 270 269 269 269 267 259 261 252 251 250 250 250 248 244 241 240 239 240 240 241 242
299 299 295 295 292 288 282 275 272 273 272 270 264 262 263 263 266 265 264 269 273 265 257 255 257 257 255 254 251 251 248 244 241 240 239 239 240 240
303 303 299 298 299 296 293 291 291 288 289 278 269 267 264 264 261 259 257 253 253 256 254 251 249 254 256 254 255 253 250 248 245 241 240 240 238 239
306 309 307 297 297 295 289 288 286 284 283 283 285 285 276 264 254 253 250 248 247 249 250 245 247 246 250 255 252 253 248 248 246 244 242 240 237 236
307 303 302 301 297 294 290 287 287 295 293 288 283 275 275 278 269 257 249 243 243 242 240 242 243 244 241 248 254 252 250 246 246 241 241 242 237 235
299 302 307 302 297 294 291 292 290 289 289 284 283 280 273 269 270 260 253 246 241 242 241 239 240 241 243 243 240 245 249 239 238 238 234 232 236 237
304 303 301 298 297 293 288 291 289 287 284 281 279 273 272 268 267 271 255 250 245 242 240 237 240 240 236 241 242 242 237 237 236 236 229 225 228 225
310 308 308 306 297 296 297 295 291 290 285 280 275 274 275 271 264 253 255 236 241 242 241 238 237 240 238 236 238 243 244 236 236 236 234 227 223 226
309 300 298 298 298 299 298 297 297 295 290 290 277 272 271 270 267 248 252 242 233 237 239 239 238 241 243 239 230 236 241 241 238 233 229 226 225 222
308 308 312 313 313 314 311 302 290 285 284 277 268 272 272 270 262 252 249 235 228 230 232 235 236 232 230 233 236 235 238 241 241 237 229 220 219 221
319 318 320 322 325 330 327 322 318 301 287 282 278 278 274 272 280 250 249 240 231 230 228 234 234 230 218 222 230 231 236 236 237 234 231 227 222 225
340 335 333 332 331 332 333 330 328 321 303 293 286 286 283 286 275 267 260 244 221 226 231 233 232 233 226 232 226 236 234 233 234 234 229 226 225 230
349 345 342 339 338 338 337 336 335 333 323 306 292 286 287 288 293 294 279 250 242 230 226 238 244 251 242 232 224 230 231 231 237 234 226 222 216 216
358 355 351 347 345 345 344 343 341 344 338 327 314 294 284 287 288 289 273 231 229 228 239 245 244 236 228 226 225 230 225 221 224 226 231 230 217 206
358 0 1 358 355 351 346 345 345 346 342 339 332 315 298 293 294 286 271 264 252 239 232 232 235 234 230 224 224 222 216 211 209 201 195 207 220 220
Wind_Speed_850mb
42 43 44 45 49 54 61 65 65 69 92 80 76 80 78 78 78 76 71 72 78 79 79 79 75 69 66 62 61 60 57 53 50 47 45 43 41 39
56 55 54 52 51 49 50 56 63 74 92 87 92 86 80 77 75 79 81 75 76 84 86 86 82 74 70 68 66 65 64 59 56 53 49 48 45 43
67 68 66 61 61 58 54 53 56 62 84 97 99 99 97 94 86 84 79 80 79 81 85 88 89 83 78 75 72 70 69 67 63 58 54 51 48 46
86 85 80 74 74 71 66 64 62 60 66 82 85 91 96 91 93 92 91 91 90 84 78 84 90 88 85 82 79 76 76 73 67 63 57 53 50 49
89 91 93 91 87 81 78 78 75 71 70 75 84 80 82 82 84 90 94 93 96 93 89 88 89 91 91 89 87 84 83 78 73 69 63 58 55 53
93 94 95 95 96 92 88 84 83 81 78 81 86 86 82 78 79 83 89 93 96 95 95 95 96 97 96 95 94 92 88 84 81 75 69 64 59 57
100 98 98 99 97 94 86 91 87 87 86 86 93 91 94 84 81 79 84 88 93 95 97 98 100 104 105 101 100 100 95 92 89 82 76 69 64 62
105 99 91 95 99 88 78 75 71 73 79 73 78 84 95 82 80 75 76 77 89 88 92 103 103 108 111 111 110 105 103 101 96 90 84 78 72 69
96 90 86 83 77 79 81 74 75 79 77 78 86 87 83 83 74 70 75 80 86 83 61 80 92 116 117 113 113 111 106 106 103 98 93 88 80 73
80 72 70 72 67 64 67 76 85 94 99 94 100 105 99 88 76 82 79 83 87 81 83 92 87 106 99 110 114 113 109 107 106 105 101 97 87 80
71 62 61 64 58 53 59 71 79 85 81 80 83 90 94 89 85 79 82 78 84 93 90 89 84 82 90 98 106 104 106 106 108 110 107 103 93 85
72 72 67 61 57 55 61 70 83 86 84 70 70 79 84 101 96 93 96 86 85 77 81 89 91 87 78 99 100 99 97 98 104 109 112 108 100 95
78 79 78 65 62 60 61 69 78 76 79 80 90 98 87 88 90 91 101 99 97 93 76 68 78 87 95 69 53 78 89 93 97 98 106 113 109 107
76 80 84 72 67 69 72 80 78 76 83 89 88 86 88 90 83 89 92 91 98 104 91 85 84 79 89 87 88 79 61 73 89 95 102 104 104 109
80 81 80 80 78 79 80 77 74 82 88 90 95 96 97 89 91 85 89 91 88 92 98 96 91 91 80 87 82 81 76 81 79 84 93 105 115 106
81 86 87 82 77 84 92 85 83 85 89 94 93 93 90 87 93 86 85 92 88 84 88 90 100 100 102 97 87 89 87 80 83 88 89 98 99 110
77 82 85 77 74 76 83 91 94 89 92 96 90 84 81 84 88 101 92 86 84 79 75 79 84 92 104 100 86 92 93 85 82 80 82 98 101 103
61 61 59 60 66 74 76 73 72 76 85 81 81 81 80 82 74 90 71 92 88 82 77 74 73 80 85 91 96 90 95 92 90 85 82 98 97 100
48 49 53 57 62 66 69 65 71 75 78 77 72 73 74 79 86 93 110 88 73 74 77 81 79 81 76 76 85 94 92 86 89 86 87 92 100 106
49 52 54 56 59 61 64 66 74 71 65 64 61 63 62 66 63 44 53 51 64 69 74 82 80 82 83 87 73 82 87 88 87 84 87 85 90 89
57 56 55 56 57 57 59 62 62 62 54 49 51 54 59 53 49 47 57 72 71 73 76 83 75 68 72 67 59 66 65 75 78 79 83 85 90 87
60 61 59 57 57 57 58 58 56 52 49 47 46 49 55 54 53 43 50 60 71 76 71 70 68 67 68 68 67 65 58 59 62 61 65 72 84 77
56 59 61 60 59 57 56 55 53 48 39 34 35 44 58 59 51 44 35 41 54 59 66 67 63 58 57 63 62 57 54 55 59 56 53 64 54 68
Wind_Direction_850mb
319 315 313 307 294 284 277 275 279 283 284 281 281 277 274 267 264 266 268 267 261 258 257 257 256 255 255 250 247 246 245 243 241 243 245 247 248 247
311 307 305 306 304 301 292 281 274 275 279 280 278 278 274 269 265 261 262 264 263 261 258 258 258 256 253 250 246 244 243 243 243 244 246 248 248 247
301 300 298 298 297 294 293 290 285 277 276 280 281 281 276 272 266 264 261 260 259 259 260 258 257 256 252 249 246 243 243 242 241 243 244 246 247 247
300 297 294 292 289 290 289 286 285 285 285 285 283 280 279 277 273 265 261 260 259 258 259 260 259 257 251 249 245 243 242 242 242 244 245 247 246 246
295 293 292 292 289 286 284 283 282 280 280 284 287 286 282 279 273 269 264 262 260 257 256 256 257 257 253 248 246 243 242 240 241 243 245 246 245 244
296 293 290 288 289 289 287 283 281 280 280 280 282 284 284 282 279 271 267 262 261 259 255 253 254 254 252 250 246 244 243 241 241 242 243 245 246 246
296 292 289 289 287 287 286 285 285 282 279 277 277 280 280 279 277 281 274 272 266 260 258 255 253 250 248 247 246 244 241 241 241 240 242 243 244 245
294 290 286 284 284 285 283 280 277 276 277 275 275 273 273 273 277 277 277 271 268 266 259 254 252 251 250 248 246 244 241 239 240 240 241 242 242 243
294 292 289 285 280 277 280 280 272 263 259 264 267 267 272 271 272 270 269 269 269 267 259 261 252 251 250 250 250 248 244 241 240 239 240 240 241 242
299 299 295 295 292 288 282 275 272 273 272 270 264 262 263 263 266 265 264 269 273 265 257 255 257 257 255 254 251 251 248 244 241 240 239 239 240 240
303 303 299 298 299 296 293 291 291 288 289 278 269 267 264 264 261 259 257 253 253 256 254 251 249 254 256 254 255 253 250 248 245 241 240 240 238 239
306 309 307 297 297 295 289 288 286 284 283 283 285 285 276 264 254 253 250 248 247 249 250 245 247 246 250 255 252 253 248 248 246 244 242 240 237 236
307 303 302 301 297 294 290 287 287 295 293 288 283 275 275 278 269 257 249 243 243 242 240 242 243 244 241 248 254 252 250 246 246 241 241 242 237 235
299 302 307 302 297 294 291 292 290 289 289 284 283 280 273 269 270 260 253 246 241 242 241 239 240 241 243 243 240 245 249 239 238 238 234 232 236 237
304 303 301 298 297 293 288 291 289 287 284 281 279 273 272 268 267 271 255 250 245 242 240 237 240 240 236 241 242 242 237 237 236 236 229 225 228 225
310 308 308 306 297 296 297 295 291 290 285 280 275 274 275 271 264 253 255 236 241 242 241 238 237 240 238 236 238 243 244 236 236 236 234 227 223 226
309 300 298 298 298 299 298 297 297 295 290 290 277 272 271 270 267 248 252 242 233 237 239 239 238 241 243 239 230 236 241 241 238 233 229 226 225 222
308 308 312 313 313 314 311 302 290 285 284 277 268 272 272 270 262 252 249 235 228 230 232 235 236 232 230 233 236 235 238 241 241 237 229 220 219 221
319 318 320 322 325 330 327 322 318 301 287 282 278 278 274 272 280 250 249 240 231 230 228 234 234 230 218 222 230 231 236 236 237 234 231 227 222 225
340 335 333 332 331 332 333 330 328 321 303 293 286 286 283 286 275 267 260 244 221 226 231 233 232 233 226 232 226 236 234 233 234 234 229 226 225 230
349 345 342 339 338 338 337 336 335 333 323 306 292 286 287 288 293 294 279 250 242 230 226 238 244 251 242 232 224 230 231 231 237 234 226 222 216 216
358 355 351 347 345 345 344 343 341 344 338 327 314 294 284 287 288 289 273 231 229 228 239 245 244 236 228 226 225 230 225 221 224 226 231 230 217 206
358 0 1 358 355 351 346 345 345 346 342 339 332 315 298 293 294 286 271 264 252 239 232 232 235 234 230 224 224 222 216 211 209 201 195 207 220 220